Regional Weather Roundup
Issued by NWS Goodland, KS

Home | Current Version | Previous Version | Text Only | Print | Product List | Glossary On
Versions: 1 2 3 4 5 6 7 8 9 10 11 12 13 14 15 16 17 18 19 20 21 22 23 24 25 26 27 28 29 30 31 32 33 34 35 36 37 38 39 40 41 42 43 44 45 46 47 48 49 50
000
ASUS43 KGLD 210259
RWRGLD

GOODLAND FORECAST AREA HOURLY WEATHER ROUNDUP
NATIONAL WEATHER SERVICE GOODLAND KS
800 PM MST FRI JAN 20 2017

...OFFICIAL OBSERVATIONS...

CITY           SKY/WX    TMP DP  RH WIND       PRES   REMARKS
GOODLAND KS    PTCLDY    36  34  92 W13       29.44R
HILL CITY KS   CLOUDY    39  36  89 W7        29.43S
IMPERIAL NEB   CLOUDY    37  32  82 W9        29.42R
MCCOOK NEB     CLOUDY    38  36  92 NW6       29.40S
AKRON CO       CLEAR     31  24  75 NW8       29.43S
BURLINGTON CO  CLOUDY    35  33  92 W13       29.46R
LIMON CO       PTCLDY    22  22 100 N6        29.45S
$$

...UNOFFICIAL OBSERVATIONS...

CITY           SKY/WX    TMP DP  RH WIND       PRES   REMARKS
LENORA KS        N/A     37  32  82 CALM        N/A
NORTON KS      DRIZZLE   36  32  87 SW5       29.40S
SHARON SPRINGS   N/A     34  33  95 W7          N/A
TRENTON NEB      N/A     37  32  82 W5          N/A
KIT CARSON CO    N/A     32  29  90 CALM        N/A
YUMA CO        MOCLDY    34  28  80 NW7       29.43F
$$




USA.gov is the U.S. government's official web portal to all federal, state and local government web resources and services.